Satellite: INMARSAT 3-F1
Catalog number: 23839
Epoch time:      103041.71371324
Element set:     865 
Inclination:        0.0579 deg
RA of node:       346.1748 deg
Eccentricity:    0.0005336
Arg of perigee:   355.2221 deg
Mean anomaly:     119.7649 deg
Mean motion:    1.00272958 rev/day
Decay rate:    2.6000E-007 rev/day^2
Epoch rev:            2513
Checksum:              283

Satellite: ASTRA 1F
Catalog number: 23842
Epoch time:      103041.00000000
Element set:     559 
Inclination:        0.0122 deg
RA of node:       319.8851 deg
Eccentricity:    0.0002995
Arg of perigee:    65.1991 deg
Mean anomaly:     133.7951 deg
Mean motion:    1.00273184 rev/day
Decay rate:    1.3100E-006 rev/day^2
Epoch rev:            2503
Checksum:              228

Satellite: JAS 2
Catalog number: 24278
Epoch time:      103042.95928044
Element set:     567 
Inclination:       98.5352 deg
RA of node:       195.0755 deg
Eccentricity:    0.0349953
Arg of perigee:   233.6137 deg
Mean anomaly:     123.2246 deg
Mean motion:   13.52871742 rev/day
Decay rate:    4.1000E-007 rev/day^2
Epoch rev:           32041
Checksum:              304

Satellite: UNAMSAT
Catalog number: 24305
Epoch time:      103042.71299591
Element set:     674 
Inclination:       82.9334 deg
RA of node:       267.8560 deg
Eccentricity:    0.0028817
Arg of perigee:   220.7034 deg
Mean anomaly:     139.1966 deg
Mean motion:   13.73450730 rev/day
Decay rate:    2.0499E-006 rev/day^2
Epoch rev:           32254
Checksum:              410

Satellite: INMARSAT 3-F2
Catalog number: 24307
Epoch time:      103038.02787617
Element set:     80 
Inclination:        0.0630 deg
RA of node:        35.8581 deg
Eccentricity:    0.0006606
Arg of perigee:   335.3144 deg
Mean anomaly:     120.0042 deg
Mean motion:    1.00271971 rev/day
Decay rate:   -1.2100E-006 rev/day^2
Epoch rev:            2350
Checksum:              336

Satellite: HOT BIRD 2
Catalog number: 24665
Epoch time:      103022.98977813
Element set:     340 
Inclination:        0.0347 deg
RA of node:       162.8644 deg
Eccentricity:    0.0004202
Arg of perigee:   151.1719 deg
Mean anomaly:     177.1880 deg
Mean motion:    1.00271548 rev/day
Decay rate:    9.9999E-009 rev/day^2
Epoch rev:            2299
Checksum:              314

Satellite: INMARSAT 3-F3
Catalog number: 24674
Epoch time:      103042.03705959
Element set:     986 
Inclination:        0.0466 deg
RA of node:       312.9201 deg
Eccentricity:    0.0004929
Arg of perigee:     8.2124 deg
Mean anomaly:      11.0119 deg
Mean motion:    1.00271985 rev/day
Decay rate:    9.9999E-009 rev/day^2
Epoch rev:            2251
Checksum:              294

Satellite: GOES 10
Catalog number: 24786
Epoch time:      103042.28145266
Element set:     538 
Inclination:        0.1233 deg
RA of node:       107.1651 deg
Eccentricity:    0.0001970
Arg of perigee:   242.8817 deg
Mean anomaly:     117.6409 deg
Mean motion:    1.00257289 rev/day
Decay rate:    9.6999E-007 rev/day^2
Epoch rev:            2126
Checksum:              297

Satellite: INMARSAT 3-F4
Catalog number: 24819
Epoch time:      103042.26978696
Element set:     880 
Inclination:        0.0709 deg
RA of node:       292.6332 deg
Eccentricity:    0.0004000
Arg of perigee:    47.5490 deg
Mean anomaly:     203.8697 deg
Mean motion:    1.00271981 rev/day
Decay rate:   -2.7599E-006 rev/day^2
Epoch rev:            2093
Checksum:              312

Satellite: FENGYUN 2A
Catalog number: 24834
Epoch time:      103042.96137844
Element set:     957 
Inclination:        2.5548 deg
RA of node:        88.5134 deg
Eccentricity:    0.0001583
Arg of perigee:   210.8963 deg
Mean anomaly:     273.6873 deg
Mean motion:    1.00284087 rev/day
Decay rate:   -1.8399E-006 rev/day^2
Epoch rev:            2077
Checksum:              323

Satellite: HOT BIRD 3
Catalog number: 24931
Epoch time:      103023.22766377
Element set:     421 
Inclination:        0.0604 deg
RA of node:       227.5595 deg
Eccentricity:    0.0010036
Arg of perigee:    81.3762 deg
Mean anomaly:     268.1866 deg
Mean motion:    1.00274291 rev/day
Decay rate:    9.9999E-009 rev/day^2
Epoch rev:            1980
Checksum:              302

Satellite: METEOSAT 7
Catalog number: 24932
Epoch time:      103043.10917475
Element set:     247 
Inclination:        0.1942 deg
RA of node:        59.3598 deg
Eccentricity:    0.0001228
Arg of perigee:   267.9267 deg
Mean anomaly:     214.0890 deg
Mean motion:    1.00278260 rev/day
Decay rate:    7.9999E-008 rev/day^2
Epoch rev:            1995
Checksum:              325

Satellite: ASTRA 1G
Catalog number: 25071
Epoch time:      103042.06871484
Element set:     391 
Inclination:        0.0217 deg
RA of node:       242.6326 deg
Eccentricity:    0.0075903
Arg of perigee:   319.6138 deg
Mean anomaly:     343.2677 deg
Mean motion:    1.00272369 rev/day
Decay rate:    9.9999E-009 rev/day^2
Epoch rev:            1906
Checksum:              404

Satellite: INMARSAT 3-F5
Catalog number: 25153
Epoch time:      103038.03923034
Element set:     841 
Inclination:        0.4526 deg
RA of node:       356.3786 deg
Eccentricity:    0.0004512
Arg of perigee:   320.8593 deg
Mean anomaly:     218.6620 deg
Mean motion:    1.00276425 rev/day
Decay rate:    1.4500E-006 rev/day^2
Epoch rev:            1838
Checksum:              270

Satellite: HOT BIRD 4
Catalog number: 25237
Epoch time:      103013.80550721
Element set:     325 
Inclination:        0.0242 deg
RA of node:       116.4838 deg
Eccentricity:    0.0007929
Arg of perigee:   193.6371 deg
Mean anomaly:     105.7449 deg
Mean motion:    1.00276095 rev/day
Decay rate:    1.0700E-006 rev/day^2
Epoch rev:            1818
Checksum:              265

Satellite: NOAA 15
Catalog number: 25338
Epoch time:      103042.99451824
Element set:     40 
Inclination:       98.5502 deg
RA of node:        65.3229 deg
Eccentricity:    0.0010405
Arg of perigee:   341.6463 deg
Mean anomaly:      18.4341 deg
Mean motion:   14.24241426 rev/day
Decay rate:    2.0499E-006 rev/day^2
Epoch rev:           24686
Checksum:              290

Satellite: RESURS O1-N4
Catalog number: 25394
Epoch time:      103043.52237390
Element set:     446 
Inclination:       98.6312 deg
RA of node:       121.5622 deg
Eccentricity:    0.0002272
Arg of perigee:   114.8054 deg
Mean anomaly:     245.3362 deg
Mean motion:   14.23875814 rev/day
Decay rate:    1.7200E-006 rev/day^2
Epoch rev:           23867
Checksum:              287

Satellite: TMSAT
Catalog number: 25396
Epoch time:      103042.92869582
Element set:     973 
Inclination:       98.6280 deg
RA of node:       120.1646 deg
Eccentricity:    0.0003496
Arg of perigee:   140.7802 deg
Mean anomaly:     219.3631 deg
Mean motion:   14.23508806 rev/day
Decay rate:   -4.3000E-007 rev/day^2
Epoch rev:           23858
Checksum:              311

Satellite: TECHSAT 1B
Catalog number: 25397
Epoch time:      103042.94793171
Element set:     147 
Inclination:       98.6227 deg
RA of node:       119.0731 deg
Eccentricity:    0.0001642
Arg of perigee:   134.6800 deg
Mean anomaly:     225.4512 deg
Mean motion:   14.22958180 rev/day
Decay rate:    7.4000E-007 rev/day^2
Epoch rev:           23855
Checksum:              291

Satellite: ASTRA 2A
Catalog number: 25462
Epoch time:      103041.00000000
Element set:     531 
Inclination:        0.0385 deg
RA of node:       308.7109 deg
Eccentricity:    0.0004824
Arg of perigee:   280.8620 deg
Mean anomaly:     298.3055 deg
Mean motion:    1.00272094 rev/day
Decay rate:    1.5900E-006 rev/day^2
Epoch rev:            1635
Checksum:              228

Satellite: EUTELSAT W2
Catalog number: 25491
Epoch time:      103042.91588956
Element set:     577 
Inclination:        0.0192 deg
RA of node:       116.0474 deg
Eccentricity:    0.0003737
Arg of perigee:   183.8192 deg
Mean anomaly:     187.4223 deg
Mean motion:    1.00275227 rev/day
Decay rate:    1.1299E-006 rev/day^2
Epoch rev:            1598
Checksum:              302

Satellite: HOT BIRD 5
Catalog number: 25495
Epoch time:      103038.05043983
Element set:     499 
Inclination:        0.0465 deg
RA of node:       259.5944 deg
Eccentricity:    0.0004088
Arg of perigee:    57.9351 deg
Mean anomaly:     230.4572 deg
Mean motion:    1.00271278 rev/day
Decay rate:    1.5900E-006 rev/day^2
Epoch rev:            1590
Checksum:              297

Satellite: SEDSAT 1
Catalog number: 25509
Epoch time:      103043.35663419
Element set:     777 
Inclination:       31.4284 deg
RA of node:       188.2610 deg
Eccentricity:    0.0358538
Arg of perigee:   248.6157 deg
Mean anomaly:     107.5911 deg
Mean motion:   14.27422605 rev/day
Decay rate:    8.8099E-006 rev/day^2
Epoch rev:           22442
Checksum:              321

Satellite: PAN SAT
Catalog number: 25520
Epoch time:      103042.96684620
Element set:     638 
Inclination:       28.4592 deg
RA of node:       267.8320 deg
Eccentricity:    0.0005743
Arg of perigee:   274.7131 deg
Mean anomaly:      85.2816 deg
Mean motion:   15.13849880 rev/day
Decay rate:    3.2870E-005 rev/day^2
Epoch rev:           23658
Checksum:              318

Satellite: ISS (ZARYA)
Catalog number: 25544
Epoch time:      103043.48753998
Element set:     681 
Inclination:       51.6285 deg
RA of node:       286.5102 deg
Eccentricity:    0.0012519
Arg of perigee:   191.4336 deg
Mean anomaly:     227.9706 deg
Mean motion:   15.58257059 rev/day
Decay rate:    1.2822E-003 rev/day^2
Epoch rev:           24155
Checksum:              317

